This demonstration page uses our WeatherBlox Daily Observations layout. Learn more.

Left ArrowRight Arrow

Hourly Observations for April 15, 2020

Temp ( °F °C ) Dew Point ( °F °C ) Humidity (%) Winds ( mph kmh ) Pressure ( in mb ) Visibility ( mi km ) Precip ( " mm )
12:54 am 00:54 Clear 27 -2.8 20 -6.7 75 75 N 8 13 30.14 1021 10 16.0934 0 0
1:54 am 01:54 Clear 27 -2.8 20 -6.7 75 75 N 6 9 30.15 1021 10 16.0934 0 0
2:54 am 02:54 Clear 22 -5.6 16 -8.9 78 78 NNW 5 7 30.14 1021 10 16.0934 0 0
3:54 am 03:54 Clear 20 -6.7 16 -8.9 85 85 N 3 6 30.15 1021 10 16.0934 0 0
4:54 am 04:54 Clear 18 -7.8 14 -10 84 84 N 5 7 30.14 1021 10 16.0934 0 0
5:54 am 05:54 Clear 17 -8.3 13 -10.6 84 84 NNW 3 6 30.15 1021 10 16.0934 0 0
6:54 am 06:54 Sunny 19 -7.2 15 -9.4 84 84 Calm 30.16 1021 10 16.0934 0 0
7:54 am 07:54 Sunny 23 -5 19 -7.2 85 85 Calm 30.17 1022 10 16.0934 0 0
8:54 am 08:54 Sunny 31 -0.6 24 -4.4 76 76 SSW 3 6 30.18 1022 10 16.0934 0 0
9:54 am 09:54 Sunny 38 3.3 22 -5.6 52 52 SW 9 15 30.17 1022 10 16.0934 0 0
10:54 am 10:54 Sunny 43 6.1 20 -6.7 40 40 W 12 19 30.16 1022 10 16.0934 0 0
11:54 am 11:54 Partly Cloudy 46 7.8 18 -7.8 32 32 WNW 13 20 30.15 1021 10 16.0934 0 0
12:54 pm 12:54 Partly Cloudy 49 9.4 15 -9.4 26 26 undefined N/A 30.14 1021 10 16.0934 0 0
1:54 pm 13:54 Sunny 49 9.4 12 -11.1 22 22 undefined N/A 30.12 1020 10 16.0934 0 0
2:54 pm 14:54 Sunny 50 10 11 -11.7 21 21 Calm 30.11 1020 10 16.0934 0 0
3:54 pm 15:54 Sunny 52 11.1 13 -10.6 21 21 Calm 30.09 1019 10 16.0934 0 0
4:54 pm 16:54 Partly Cloudy 55 12.8 15 -9.4 20 20 NE 3 6 30.08 1019 10 16.0934 0 0
5:54 pm 17:54 Mostly Cloudy 54 12.2 15 -9.4 21 21 Calm 30.09 1019 10 16.0934 0 0
6:54 pm 18:54 Sunny 52 11.1 15 -9.4 23 23 E 6 9 30.07 1018 10 16.0934 0 0
7:54 pm 19:54 Cloudy 50 10 15 -9.4 25 25 E 9 15 30.08 1019 10 16.0934 0 0
8:54 pm 20:54 Clear 47 8.3 15 -9.4 28 28 E 9 15 30.08 1019 10 16.0934 0 0
9:54 pm 21:54 Cloudy 45 7.2 15 -9.4 30 30 NE 10 17 30.16 1021 10 16.0934 0 0
10:54 pm 22:54 Cloudy 42 5.6 26 -3.3 53 53 NNE 9 15 30.18 1022 10 16.0934 0.001 0.001
11:54 pm 23:54 Cloudy 43 6.1 18 -7.8 37 37 ENE 9 15 30.21 1023 10 16.0934 0 0

Powered by AerisWeather